Location: Aula-Vintri
(58.3875°N, 22.4322°E)
Time: 10:16:33
(UTC+00:00)

Cosmos 1953 - Pass Details

Date: 13 October 2019
Orbit: 539 x 559 km, 82.5° (Epoch: 11 November)

Event Time Altitude Azimuth Distance (km) Brightness Sun altitude
Rises 17:45:49 0° 211° (SSW) 2,739 6.1 -18.3°
Reaches altitude 10° 17:48:04 10° 219° (SW) 1,849 5.3 -18.6°
Maximum altitude 17:51:57 42° 291° (WNW) 809 3.7 -19.1°
Drops below altitude 10° 17:55:52 10° 3° (N) 1,863 5.2 -19.5°
Sets 17:58:09 0° 11° (N) 2,762 6.0 -19.8°
